Regional Weather Roundup
Issued by NWS Wakefield, VA

Home | Current Version | Previous Version | Graphics & Text | Print | Product List | Glossary On
Versions: 1 2 3 4 5 6 7 8 9 10 11 12 13 14 15 16 17 18 19 20 21 22 23 24 25 26 27 28
000
ASUS41 KAKQ 261115
RWRAKQ

REGIONAL WEATHER ROUNDUP
NATIONAL WEATHER SERVICE WAKEFIELD VA
700 AM EDT FRI MAY 26 2017

Note: "fair" indicates few or no clouds below 12,000 feet with no
significant weather and/or obstructions to visibility. * = Denotes
station may not report precipitation (e.g., rain,snow,etc.),
thunder or fog.

VAZ042-051-052>054-056-261200-
NORTHERN VIRGINIA

CITY           SKY/WX    TMP DP  RH WIND       PRES   REMARKS
WASH NATIONAL  PTSUNNY   61  56  83 SW9       29.69R
DULLES         SUNNY     57  56  96 CALM      29.70R
FORT BELVOIR   PTSUNNY   58  57  96 CALM      29.70R
QUANTICO       PTSUNNY   60  57  89 W8        29.71R
FREDERICKSBRG* PTSUNNY   59  59 100 SW9       29.71R
STAFFORD*      CLOUDY    58  57  98 SW5       29.76R
WARRENTON      PTSUNNY   59  55  85 SW5       29.71R
CULPEPER*      MOSUNNY   58  56  95 SW5       29.72R
MANASSAS*      PTSUNNY   58  57  97 VRB3      29.71R
LEESBURG*      MOSUNNY   61  57  88 W5        29.70R
WINCHESTER     PTSUNNY   59  54  82 SW3       29.71R
FRONT ROYAL*   CLOUDY    55  55 100 CALM      29.71R
LURAY*         DRIZZLE   57  55  94 S5          N/A
$$

VAZ048-049-060>072-079>083-261200-
CENTRAL AND SOUTH CENTRAL VIRGINIA

CITY           SKY/WX    TMP DP  RH WIND       PRES   REMARKS
RICHMOND       MOSUNNY   62  55  77 W16       29.75R
CHESTERFIELD*  NOT AVBL
PETERSBURG*    MOSUNNY   60  54  80 SW13      29.78R
HANOVER        SUNNY     61  53  75 S8        29.75R
TAPPAHANNOCK*  SUNNY     62  54  75 SW6       29.73R
QUINTON*       FAIR      61  56  85 W6        29.75R
CHARLOTTSVILLE SUNNY     61  56  83 CALM      29.73R
GORDONSVILLE*  PTSUNNY   59  56  89 CALM      29.73R
ORANGE*        SUNNY     55  54  94 CALM      29.73R
LOUISA*        CLOUDY    63  59  88 SW5       29.73R
BUMPASS*       FAIR      58  56  95 SW7       29.73R
FARMVILLE*     SUNNY     61  52  73 SW7       29.77R
CREWE*         FAIR      61  55  81 SW7       29.79R
FORT PICKETT*  FAIR      60  55  86 SW10      29.79R
CHASE CITY*    FAIR      60  56  88 W3        29.82R
CLARKSVILLE*   FAIR      59  55  88 SW7       29.83R
SOUTH HILL*    SUNNY     59  55  87 SW6       29.87R
LAWRENCEVILLE* FAIR      61  55  79 SW9       29.80R
EMPORIA*       SUNNY     61  54  77 SW8       29.81R
$$

VAZ088>098-261200-
SOUTHEAST VIRGINIA

CITY           SKY/WX    TMP DP  RH WIND       PRES   REMARKS
NORFOLK        SUNNY     65  55  70 SW12G21   29.75R
VIRGINIA BEACH MOSUNNY   62  54  74 W10       29.74R
NORFOLK NAVAL  MOSUNNY   65  55  70 W14       29.77R
WEST POINT*    MOSUNNY   61  56  85 SW5       29.76R
SALUDA*        CLOUDY    60  57  89 SW5       29.73R
NEWPORT NEWS   PTSUNNY   63  55  75 W13G21    29.75R
LANGLEY AFB    PTSUNNY   64  56  75 W14       29.74R
FORT EUSTIS    MOSUNNY   63  55  76 W8        29.73R
WILLIAMSBURG*  SUNNY     63  55  77 W8        29.77R
HR EXEC AP*    FAIR      63  54  72 W9G17     29.76R
FRANKLIN*      SUNNY     63  54  73 SW7       29.79R
US460-WAKEFLD  SUNNY     60  55  83 SW10      29.77R
$$

VAZ020-022-025-037-045-261200-
WEST CENTRAL AND SOUTHWEST VIRGINIA

CITY           SKY/WX    TMP DP  RH WIND       PRES   REMARKS
STAUNTON*      CLOUDY    60  54  80 S8        29.77R
WAYNESBORO*    PTSUNNY   62  54  75 SW6       29.76R
HOT SPRINGS VA CLOUDY    52  48  87 W22G31    29.84R
LYNCHBURG      MOSUNNY   62  53  72 SW7       29.83R
DANVILLE       CLEAR     59  55  87 SW10      29.86R
SOUTH BOSTON*  FAIR      59  54  83 SW9       29.83R
MARTINSVILLE   CLEAR     60  51  74 W3        29.90R
ROANOKE        CLOUDY    64  50  60 W9        29.87R
BLACKSBURG     CLOUDY    59  49  69 W14G23    29.92R
DUBLIN*        CLOUDY    61  46  58 W8        29.91R
MARION*        CLOUDY    56  53  90 W16G22    29.96R FOG
HILLSVILLE*    MOCLDY    56  47  73 W8        29.91R
RICHLANDS*     CLOUDY    55  25  32 W9        29.97R
WISE*          CLOUDY    55  48  76 CALM      30.00R
ABINGDON*      CLOUDY    55  55 100 W9        29.98R FOG
$$

MDZ021>025-VAZ099-100-261200-
SOUTHERN MARYLAND AND THE DELMARVA PENINSULA

CITY           SKY/WX    TMP DP  RH WIND       PRES   REMARKS
PATUXENT RIVER PTSUNNY   60  59  96 SW10      29.69R
BAY BRIDGE APT CLOUDY    61  57  88 W9        29.67R
LEONARDTOWN    CLOUDY    59  55  88 W5        29.71R
DOVER          MOSUNNY   61  61 100 SW13      29.63R
GEORGETOWN     CLOUDY    61  56  83 SW8       29.67R
EASTON         MOSUNNY   63  57  82 SW5       29.71R
CAMBRIDGE      CLOUDY    61  57  88 SW5       29.68R
SALISBURY      PTSUNNY   60  59  96 SW9       29.68R
OCEAN CITY     SUNNY     60  57  89 W12       29.69R
WALLOPS ISLAND MOSUNNY   63  58  83 W7        29.70R
ACCOMACK*      PTSUNNY   64  13  13 W13G18    29.71R
$$

NCZ012>017-030>032-261200-
NORTH CENTRAL AND EASTERN NORTH CAROLINA

CITY           SKY/WX    TMP DP  RH WIND       PRES   REMARKS
ROANOKE RAPIDS FAIR      61  54  77 W12       29.83R
RALEIGH        CLEAR     60  54  80 SW7       29.89R
ELIZABETH CITY SUNNY     65  56  72 W17G23    29.79R
AHOSKIE*         N/A     62  55  80 CALM      29.82R
EDENTON*       SUNNY     67  57  68 W13G18    29.83R
CURRITUCK*     SUNNY     65  55  70 SW15      29.79R
KILL DEVIL HLS SUNNY     66  55  66 W15G24    29.79R
MANTEO         SUNNY     66  56  70 W17G25    29.82R
CAPE HATTERAS  SUNNY     70  58  65 W14G23    29.85R
TARBORO*       NOT AVBL
GOLDSBORO      SUNNY     62  58  86 SW9       29.87R
WASHINGTON     SUNNY     63  55  73 W10G16    29.86R
GREENVILLE     SUNNY     64  55  72 W12       29.88R
NEW BERN       SUNNY     63  55  75 W10       29.90R
WILMINGTON     MOSUNNY   63  55  75 W7        29.93R
$$

VAZ048-261200-
ELSEWHERE

CITY           SKY/WX    TMP DP  RH WIND       PRES   REMARKS
HARRISBURG PA  SUNNY     60  56  86 N3        29.62R
BALTIMORE      CLOUDY    61  57  87 W8        29.66R
ANNAPOLIS      CLOUDY    61  59  93 VRB5      29.67R
ANDREWS AFB    CLOUDY    59  56  91 SW7       29.68R
PHILADELPHIA   MOSUNNY   61  57  87 W12       29.60R
HENDERSON NC   SUNNY     56  51  82 SW9       29.85R
GREENSBORO     PTCLDY    58  53  84 W10       29.89R
ROCKY MOUNT    SUNNY     62  56  80 SW7       29.86R
$$

VAZ100-261200-
MARINE

STATION/POSITION TIME  TEMP    WIND        PRES    WAVE   SWELL
                       AIR SEA DIR/SP/G            HT/PER HT/PER
                 (UTC) (F)     (DEG/KT/KT) (MB)    (FT/S) (FT/S)
CAPE MAY NJ      1048   62 61  260/ 20/ 23 1003.0R
LEWES DE         1048   62 62  260/ 12/ 18 1003.7R
15NM E FENWICK I 1050   60 57  250/ 16/ 17 1004.2R   6/ 8   3/ 9
OCEAN-CITY-INLET 1042   61 62  280/  9/ 13 1004.9R
WACHAPREAGUE VA  1048   62 65  240/  4/ 10 1005.8R
THOMAS POINT MD  1100   61 64  260/ 13/ 15   N/A
GOOSES REEF MD   1100   62 62  290/ 16/ 17 1005.6    2/ 2
COVE POINT MD    1048   61     280/ 12/ 18 1005.8R
SOLOMONS ISLAND  1048   62 66  250/ 14/ 16   N/A
BISHOPS HEAD MD  1048   64 66  250/ 18/ 20 1005.7R
PINEY POINT MD   1048          270/ 12/ 13   N/A
POTOMAC MD       1100   64 66  260/ 17/ 19 1004.4    2/ 3
CAMBRIDGE MD     1042   62 67                N/A
LEWISETTA VA     1048   63 67  270/ 12/ 14 1005.5R
RAPPAHANNOCK LGT 1048          260/ 22/ 24 1006.6R
STINGRAY PT      1050   62     280/ 12/ 14 1006.1R
YORK RVR RNG VA  1048   63     260/ 19/ 23 1006.1R
YORKTOWN VA      1048   63 68  240/ 13/ 19 1006.6R
JAMESTOWN VA     1100   62 70  250/ 12/ 16   N/A     0
DOMINION TERM VA 1048   64     280/ 16/ 20 1007.4R
KIPTOPEKE VA     1048      65  280/ 20/ 23   N/A
CHES BAY BRIDGE  1048   65 66  260/ 19/ 24 1006.8R
CAPE HENRY VA    1048   63     240/  9/ 15   N/A
WILLOUBY STN VA  1048   65     260/ 23/ 25 1006.4R
S CRANEY ISL VA  1048   64     250/ 10/ 17 1007.1R
CAPE HENRY BUOY  1042      62                N/A     4/ 8
1ST LANDING BUOY 1100   66 65              1006.9    2/ 3
CAPE CHARLES BUO 1051      61                N/A     4/ 4
64NM E OF VA BCH 1050   64 62  250/ 17/ 21 1007.6R   7/ 8   3/ 8
DUCK PIER NC     1048   68 62  260/ 22/ 26 1008.3R
44100 DUCK FRF   1035      63                N/A     4/ 9
44056 DUCK FRF   1030      62                N/A     2/ 8
OREGON INLET NC  1042   67 70  240/ 20/ 25 1009.0R
HATTERAS NC      1048   70 73  250/ 18/ 23 1010.5R
DIAMOND SHLS NC  1050   72 78  270/ 23/ 29 1010.4R   9/ 8   7/ 8
CAPE LOOKOUT NC  1100   69     280/ 20/ 22 1011.9R
$$




USA.gov is the U.S. government's official web portal to all federal, state and local government web resources and services.